156P/Russell-LINEAR (2020)

Japanese version
Home page
Updated on July 3, 2021

---------------------------------------------------------------------

* Profile

* Pictures

* Orbital Elements

Epoch 2020 Nov. 7.0 TT = JDT 2459160.5
T 2020 Nov. 17.87375 TT                                 Rudenko
q   1.3330191            (2000.0)            P               Q
n   0.15314480     Peri.    0.42765     +0.81128686     -0.55884352
a   3.4599345      Node    35.36956     +0.53551941     +0.59242143
e   0.6147271      Incl.   17.26297     +0.23459026     +0.58028508
P   6.44
From 1912 observations 1986 Sept. 25-2021 June 13, mean residual 0".8.

* Finding Charts

* Magnitudes Graph

        m1 = 16.8 + 5 log d +   5.0 log r          [   ,-60]  (             - 2020 Sept.18)
        m1 = -3.5 + 5 log d + 120   log r          [-60,  0]  (2020 Sept.18 - 2020 Nov. 17)
        m1 =  9.5 + 5 log d +  15.0 log r(t - 25)  [  0,   ]  (2020 Nov. 17 -             )

---------------------------------------------------------------------

The orbital elements are published on M.P.E.C. 2021-N06.
The charts are made with StellaNavigator Ver.10 (AstroArts).
The magnitudes graphs are made with Comet for Windows.

---------------------------------------------------------------------

Copyright(C) Seiichi Yoshida (comet@aerith.net). All rights reserved.